THORAD DELTA 1 DEB, 8435

Orbit data source: Space-Track

THORAD DELTA 1 DEB, 8435 is space debris in SSO originally from a launch on Fri, 15 Nov 1974 UTC launched from the Air Force Western Test Range (AFWTR). Debris objects in space refer to the collection of defunct objects orbiting the Earth. Examples of debris include non-operational satellites, rocket bodies, and fragments generated from explosions, collisions, or faulty payload assembly.

Loading next visibility...
Identifier
8435, 1974-089CL
Orbit
SSO
Country
Flag of USUS
Related business
Manufacturer
Unknown
Mission
Spacecraft
Bus & Motor
Unknown
Mass
Unknown
Launch date (UTC)
1974-11-15 (51 years ago)
Launch vehicle
Unknown
Launch site
Air Force Western Test Range (AFWTR)
Object type
Payload
Rocket body
Debris
Shape & HBR
Unknown shape, 0.1 m
Radar Cross Section
Small (<0.1 m²)

Expand to show TLE details & history
Last TLE update: 8 hours ago

TLE from 8 hours ago
0 THORAD DELTA 1 DEB
1 08435U 74089CL  25286.64257184 -.00000050  00000-0 -84087-4 0  9996
2 08435 101.5946 166.6409 0164937 264.4264 119.9261 12.20816244269150
Epoch: 2025-10-13T15:25Z
TLE epoch observation values (Epoch: 2025-10-13T15:25:18.206Z)
Latitude
25.4346°
Longitude
-92.69998°
Altitude
1,658.92 km
Speed
7.016 km/s
True Right ascension
10h 44m 16s
True Declination
25° 18' 59"
Sunlit
Object was in daylight at epoch
Visualization orbit readout
Latitude
Unknown
Longitude
Unknown
Altitude
Unknown
Speed
Unknown
Apparent Right ascension
Unknown
Apparent Declination
Unknown
Sunlit
N/A
Visualization observer readout
Local Sidereal Time
18:24:26
Azimuth
Unknown
Elevation
Unknown
Doppler factor
Unknown
Orbital elements
Apogee altitude
1,717.931 km
Perigee altitude
1,455.196 km
Semi-major axis
7,964.701 km
Eccentricity
0.01649
Inclination
101.5946°
RAAN
166.6409°
Arg. of periapsis
264.4264°
True anomaly
121.54724°
Mean anomaly
119.9261°
Eccentric anomaly
120.73835°
Mean motion
3.05344 °/min
Orbital period
117.9 mins
BSTAR
-0.000084087
Loading maneuver chart data...
Computing Atmospheric mass density...

Documentation

Showing up to 5 results
|